Location: Kapla
(46.2483°N, 15.0094°E)
Time: 20:34:35
(UTC+00:00)

Ariane Rocket - Pass Details

Date: 03 March 2021
Orbit: 759 x 771 km, 98.7° (Epoch: 20 April)

Event Time Altitude Azimuth Distance (km) Brightness Sun altitude
Exits shadow 18:42:03 34° 140° (SE) 1,257 3.7 -20.2°
Maximum altitude 18:44:12 63° 71° (ENE) 858 2.9 -20.6°
Drops below altitude 10° 18:49:15 10° 352° (N) 2,323 5.7 -21.4°
Sets 18:51:35 0° 349° (N) 3,253 6.6 -21.8°
